Location: Hac?musa Deresi
(39.1694°N, 32.2508°E)
Time: 11:24:05
(UTC+00:00)

CZ-4B R/B - Pass Details

Date: 22 April 2026
Orbit: 700 x 797 km, 98.9° (Epoch: 20 May)

Event Time Altitude Azimuth Distance (km) Brightness Sun altitude
Exits shadow 19:15:35 56° 23° (NNE) 840 3.7 -27.2°
Drops below altitude 10° 19:19:31 10° 352° (N) 2,176 6.5 -27.7°
Sets 19:21:46 0° 350° (N) 3,094 7.5 -28.0°
